ATLAS 5 CENTAUR DEB, 46846

Orbit data source: Space-Track

ATLAS 5 CENTAUR DEB, 46846 is space debris in HEO originally from a launch on Wed, 17 Oct 2018 UTC launched from the Air Force Eastern Test Range (AFETR). Debris objects in space refer to the collection of defunct objects orbiting the Earth. Examples of debris include non-operational satellites, rocket bodies, and fragments generated from explosions, collisions, or faulty payload assembly.

Loading next visibility...
ATLAS 5 CENTAUR DEB details
Identifier
46846, 2018-079DB
Orbit
HEO
Last TLE update1 day ago
Origin
Flag of USULA (US)
ManufacturerULA Decatur
MissionSpacecraft
Bus & MotorUnknown
MassUnknown
Launch date (UTC)
2018-10-17 (6 years ago)
Launch vehicleUnknown
Launch site
Air Force Eastern Test Range (AFETR)
Object type
Payload
Rocket body
Debris
Shape & HBRUnknown
Radar Cross SectionRCS unknown

Expand to show TLE details & history

TLE from 1 day ago
0 ATLAS 5 CENTAUR DEB
1 46846U 18079DB  24360.16476843 -.00000119  00000-0  00000-0 0  9999
2 46846  11.3616 104.3956 4881263 183.5326 170.9729  1.71857437 26035
Epoch: 2024-12-25T03:57Z
Definitive object data (Epoch: 2024-12-25T03:57:15.992Z)
Latitude-0.00001°
Longitude-49.14446°
Altitude37,378.665 km
Speed2.163 km/s
True Right ascension06h 57m 20s
True Declination0° 00' 00"
Sunlit
Object was in daylight at TLE epoch
Visualization TLE readout
Latitude2.38314°
Longitude118.81391°
Altitude8,856.195 km
Speed6.228 km/s
Apparent Right ascension19h 21m 25s
Apparent Declination-14° 38' 47"
Sunlit
Object is in daylight
Visualization observer readout
Local Sidereal Time14:23:32
Azimuth111.124° ESE
Elevation2.088°
Doppler factor1
Orbital elements
Apogee altitude37,437.346 km
Perigee altitude8,693.16 km
Semi-major axis29,443.39 km
Eccentricity0.4881263
Inclination11.3616°
RAAN104.3956°
Arg. of periapsis183.5326°
True anomaly176.43793°
Mean anomaly170.9729°
Eccentric anomaly173.93019°
Mean motion0.4296 °/min
BSTARUnknown
Orbital period837.99 mins
Loading maneuver chart data...

ATLAS 5 CENTAUR DEB Visibility forecast

Observer location: undefined°, undefined

Span
Click to sort rows by Start time (UTC) header in descending order
Start Az.
Max El. time (UTC)
Max El. Az.
Max El.
End time (UTC)
End Az.
246 mins2024-12-27 08:13:36.539Z239.137° WSW2024-12-27 09:55:36.539Z243.398° WSW13.674°2024-12-27 12:19:36.539Z255.396° W
|